BGA151R EDDF-EGKK

Flight info

Callsign BGA151R
Flight time 1h 15m
Altitude 40000
Route OBOKA5S/18 OBOKA Z29 TORNU DCT GALSO Q63 ARREK Y4 TEBRA
Aircraft A337/H-SADE1E2E3GHIJ3J5M1P2RWXY/LB2D1

Departure

Time 2026-04-16 12:33
Airport Frankfurt Main Airport (EDDF)

Arrival

Time 2026-04-16 13:48
Airport London Gatwick Airport (EGKK)
Time Latitude Longitude Altitude Speed Heading
2026-04-16 11:51 50.03944 8.54103 360 ft 0 kts 250°
2026-04-16 12:20 50.03950 8.54126 360 ft 3 kts 247°
2026-04-16 12:21 50.03961 8.54164 360 ft 3 kts 239°
2026-04-16 12:21 50.03977 8.54198 360 ft 3 kts 225°
2026-04-16 12:21 50.03997 8.54219 360 ft 3 kts 181°
2026-04-16 12:21 50.04006 8.54219 360 ft 5 kts 159°
2026-04-16 12:26 50.04001 8.54222 350 ft 2 kts 159°
2026-04-16 12:26 50.03977 8.54236 356 ft 5 kts 159°
2026-04-16 12:26 50.03932 8.54261 358 ft 8 kts 159°
2026-04-16 12:27 50.03870 8.54297 357 ft 11 kts 160°
2026-04-16 12:27 50.03855 8.54304 353 ft 1 kts 166°
2026-04-16 12:27 50.03837 8.54305 356 ft 3 kts 183°
2026-04-16 12:27 50.03816 8.54285 352 ft 2 kts 229°
2026-04-16 12:28 50.03793 8.54201 359 ft 14 kts 248°
2026-04-16 12:28 50.03753 8.54023 357 ft 21 kts 251°
2026-04-16 12:28 50.03696 8.53771 355 ft 28 kts 247°
2026-04-16 12:28 50.03617 8.53469 357 ft 32 kts 249°
2026-04-16 12:29 50.03536 8.53127 354 ft 34 kts 250°
2026-04-16 12:29 50.03450 8.52781 354 ft 34 kts 245°
2026-04-16 12:29 50.03376 8.52582 358 ft 2 kts 188°
2026-04-16 12:29 50.03339 8.52593 352 ft 6 kts 178°
2026-04-16 12:30 50.03338 8.52593 352 ft 0 kts 178°
2026-04-16 12:32 50.03227 8.52596 355 ft 44 kts 180°
2026-04-16 12:32 50.02678 8.52600 360 ft 114 kts 179°
2026-04-16 12:32 50.01670 8.52611 366 ft 173 kts 183°
2026-04-16 12:33 50.00406 8.52633 1017 ft 186 kts 183°
2026-04-16 12:33 49.99074 8.52551 1940 ft 195 kts 185°
2026-04-16 12:33 49.97703 8.52465 2901 ft 199 kts 186°
2026-04-16 12:33 49.96441 8.51593 3625 ft 212 kts 223°
2026-04-16 12:34 49.95421 8.49825 3919 ft 225 kts 232°
2026-04-16 12:34 49.94426 8.47944 3992 ft 225 kts 230°
2026-04-16 12:34 49.93392 8.46130 4354 ft 229 kts 228°
2026-04-16 12:34 49.92252 8.44260 5064 ft 245 kts 227°
2026-04-16 12:35 49.91035 8.42348 5851 ft 256 kts 226°
2026-04-16 12:35 49.89736 8.40358 6776 ft 262 kts 226°
2026-04-16 12:35 49.88486 8.38334 7708 ft 265 kts 233°
2026-04-16 12:35 49.87618 8.35817 8621 ft 268 kts 255°
2026-04-16 12:36 49.87494 8.32939 9552 ft 271 kts 279°
2026-04-16 12:36 49.88163 8.30192 10427 ft 277 kts 298°
2026-04-16 12:36 49.89200 8.27570 10891 ft 296 kts 302°
2026-04-16 12:36 49.90362 8.24849 11386 ft 309 kts 302°
2026-04-16 12:37 49.91558 8.22037 12091 ft 314 kts 302°
2026-04-16 12:37 49.92761 8.19174 12886 ft 317 kts 301°
2026-04-16 12:37 49.94050 8.16372 13705 ft 321 kts 309°
2026-04-16 12:37 49.95082 8.14705 14229 ft 323 kts 314°
2026-04-16 12:38 49.96775 8.12365 14916 ft 327 kts 317°
2026-04-16 12:38 49.98512 8.10061 15588 ft 330 kts 317°
2026-04-16 12:38 50.00273 8.07731 16245 ft 334 kts 317°
2026-04-16 12:38 50.02048 8.05373 16933 ft 336 kts 317°
2026-04-16 12:39 50.03830 8.02996 17611 ft 339 kts 316°
2026-04-16 12:39 50.05628 8.00591 18261 ft 341 kts 316°
2026-04-16 12:39 50.07435 7.98169 18838 ft 345 kts 316°
2026-04-16 12:39 50.09266 7.95711 19368 ft 348 kts 316°
2026-04-16 12:40 50.11105 7.93238 19907 ft 350 kts 316°
2026-04-16 12:40 50.12940 7.90768 20441 ft 353 kts 316°
2026-04-16 12:40 50.14806 7.88254 20966 ft 355 kts 316°
2026-04-16 12:40 50.16679 7.85727 21545 ft 356 kts 316°
2026-04-16 12:41 50.18560 7.83189 22093 ft 357 kts 316°
2026-04-16 12:41 50.20444 7.80642 22622 ft 359 kts 316°
2026-04-16 12:41 50.22336 7.78082 23116 ft 361 kts 316°
2026-04-16 12:41 50.24231 7.75571 23576 ft 364 kts 319°
2026-04-16 12:42 50.26343 7.73362 23995 ft 369 kts 328°
2026-04-16 12:42 50.28668 7.71593 24358 ft 373 kts 332°
2026-04-16 12:42 50.31051 7.69954 24779 ft 374 kts 332°
2026-04-16 12:42 50.33473 7.68313 25248 ft 373 kts 332°
2026-04-16 12:43 50.35822 7.66718 25728 ft 372 kts 332°
2026-04-16 12:43 50.38222 7.65080 26203 ft 371 kts 332°
2026-04-16 12:43 50.40557 7.63481 26668 ft 370 kts 331°
2026-04-16 12:43 50.42914 7.61862 27169 ft 369 kts 331°
2026-04-16 12:44 50.45268 7.60243 27619 ft 368 kts 331°
2026-04-16 12:44 50.47612 7.58631 28046 ft 368 kts 332°
2026-04-16 12:44 50.50067 7.57355 28455 ft 373 kts 339°
2026-04-16 12:44 50.52456 7.55909 28853 ft 366 kts 328°
2026-04-16 12:45 50.54734 7.54125 29320 ft 363 kts 326°
2026-04-16 12:45 50.56863 7.52126 29771 ft 359 kts 321°
2026-04-16 12:45 50.58941 7.49943 30166 ft 358 kts 320°
2026-04-16 12:45 50.61006 7.47762 30231 ft 358 kts 320°
2026-04-16 12:46 50.65161 7.43434 30237 ft 357 kts 321°
2026-04-16 12:46 50.69303 7.39161 30234 ft 355 kts 321°
2026-04-16 12:47 50.73272 7.34643 30234 ft 348 kts 312°
2026-04-16 12:47 50.76181 7.28679 30236 ft 341 kts 297°
2026-04-16 12:48 50.78401 7.22130 30238 ft 340 kts 294°
2026-04-16 12:48 50.80527 7.15443 30238 ft 340 kts 294°
2026-04-16 12:49 50.82660 7.08749 30238 ft 340 kts 294°
2026-04-16 12:49 50.84809 7.02071 30238 ft 341 kts 294°
2026-04-16 12:50 50.86970 6.95378 30237 ft 341 kts 294°
2026-04-16 12:50 50.89114 6.88722 30215 ft 342 kts 294°
2026-04-16 12:51 50.91271 6.82008 30214 ft 341 kts 294°
2026-04-16 12:51 50.93421 6.75294 30213 ft 341 kts 294°
2026-04-16 12:52 50.95565 6.68581 30220 ft 341 kts 294°
2026-04-16 12:52 50.97705 6.61860 30214 ft 341 kts 294°
2026-04-16 12:53 50.99845 6.55123 30232 ft 342 kts 294°
2026-04-16 12:53 51.01983 6.48370 30233 ft 342 kts 294°
2026-04-16 12:54 51.04103 6.41659 30234 ft 342 kts 294°
2026-04-16 12:54 51.06230 6.34906 30234 ft 342 kts 294°
2026-04-16 12:55 51.08355 6.28144 30216 ft 341 kts 294°
2026-04-16 12:55 51.10478 6.21367 30214 ft 341 kts 294°
2026-04-16 12:56 51.12594 6.14593 30215 ft 341 kts 294°
2026-04-16 12:56 51.14346 6.07655 30215 ft 339 kts 285°
2026-04-16 12:57 51.15614 6.00421 30215 ft 339 kts 284°
2026-04-16 12:57 51.16787 5.93143 30216 ft 339 kts 283°
2026-04-16 12:58 51.17948 5.85855 30217 ft 339 kts 283°
2026-04-16 12:58 51.19295 5.78652 30231 ft 339 kts 287°
2026-04-16 12:59 51.20866 5.71569 30215 ft 338 kts 288°
2026-04-16 13:00 51.23225 5.61049 30212 ft 336 kts 288°
2026-04-16 13:00 51.24765 5.54013 30214 ft 336 kts 288°
2026-04-16 13:01 51.26294 5.46961 30208 ft 336 kts 287°
2026-04-16 13:01 51.27819 5.39898 30208 ft 336 kts 287°
2026-04-16 13:02 51.29338 5.32839 30211 ft 336 kts 287°
2026-04-16 13:02 51.30854 5.25778 30212 ft 336 kts 287°
2026-04-16 13:03 51.32357 5.18749 30208 ft 336 kts 287°
2026-04-16 13:03 51.33861 5.11692 30211 ft 336 kts 287°
2026-04-16 13:04 51.35366 5.04605 30214 ft 336 kts 287°
2026-04-16 13:04 51.36864 4.97531 30210 ft 336 kts 287°
2026-04-16 13:05 51.38358 4.90447 30212 ft 335 kts 287°
2026-04-16 13:05 51.39837 4.83407 30213 ft 335 kts 287°
2026-04-16 13:06 51.41329 4.76286 30211 ft 335 kts 287°
2026-04-16 13:06 51.42797 4.69254 30213 ft 334 kts 287°
2026-04-16 13:07 51.44266 4.62191 30209 ft 334 kts 287°
2026-04-16 13:07 51.45730 4.55125 30211 ft 334 kts 287°
2026-04-16 13:08 51.47191 4.48050 30211 ft 334 kts 287°
2026-04-16 13:08 51.48647 4.40971 30211 ft 334 kts 287°
2026-04-16 13:09 51.50097 4.33901 30216 ft 333 kts 287°
2026-04-16 13:09 51.51542 4.26828 30213 ft 333 kts 287°
2026-04-16 13:10 51.52982 4.19756 30213 ft 333 kts 287°
2026-04-16 13:10 51.54415 4.12692 30210 ft 333 kts 287°
2026-04-16 13:11 51.55834 4.05669 30211 ft 333 kts 287°
2026-04-16 13:11 51.57261 3.98584 30211 ft 333 kts 287°
2026-04-16 13:12 51.58682 3.91500 30211 ft 333 kts 287°
2026-04-16 13:12 51.60101 3.84405 30215 ft 333 kts 287°
2026-04-16 13:13 51.61510 3.77328 30216 ft 332 kts 287°
2026-04-16 13:13 51.62905 3.70302 30216 ft 332 kts 286°
2026-04-16 13:14 51.64314 3.63181 30139 ft 332 kts 286°
2026-04-16 13:14 51.65002 3.59691 29905 ft 331 kts 286°
2026-04-16 13:14 51.65700 3.56144 29608 ft 333 kts 286°
2026-04-16 13:14 51.66400 3.52584 29331 ft 334 kts 286°
2026-04-16 13:15 51.67101 3.49009 29054 ft 335 kts 286°
2026-04-16 13:15 51.67804 3.45418 28782 ft 337 kts 286°
2026-04-16 13:15 51.68509 3.41807 28510 ft 338 kts 286°
2026-04-16 13:15 51.69215 3.38189 28238 ft 339 kts 286°
2026-04-16 13:16 51.69923 3.34554 27976 ft 341 kts 286°
2026-04-16 13:16 51.70635 3.30891 27706 ft 342 kts 286°
2026-04-16 13:16 51.71345 3.27227 27441 ft 343 kts 286°
2026-04-16 13:16 51.72057 3.23549 27207 ft 345 kts 286°
2026-04-16 13:17 51.72673 3.19815 26942 ft 345 kts 280°
2026-04-16 13:17 51.72937 3.15962 26680 ft 346 kts 271°
2026-04-16 13:17 51.72832 3.12067 26430 ft 348 kts 266°
2026-04-16 13:17 51.72584 3.08176 26180 ft 350 kts 264°
2026-04-16 13:18 51.72267 3.04324 25930 ft 351 kts 263°
2026-04-16 13:18 51.71911 3.00411 25676 ft 353 kts 263°
2026-04-16 13:18 51.71545 2.96491 25444 ft 354 kts 263°
2026-04-16 13:18 51.71179 2.92558 25209 ft 355 kts 263°
2026-04-16 13:19 51.70817 2.88603 24952 ft 357 kts 263°
2026-04-16 13:19 51.70460 2.84635 24717 ft 358 kts 263°
2026-04-16 13:19 51.70105 2.80660 24480 ft 359 kts 263°
2026-04-16 13:19 51.69751 2.76665 24243 ft 360 kts 262°
2026-04-16 13:20 51.69395 2.72662 24014 ft 361 kts 262°
2026-04-16 13:20 51.69044 2.68720 23779 ft 361 kts 262°
2026-04-16 13:20 51.68687 2.64716 23512 ft 360 kts 262°
2026-04-16 13:20 51.68330 2.60731 23234 ft 359 kts 262°
2026-04-16 13:21 51.67973 2.56753 22967 ft 357 kts 262°
2026-04-16 13:21 51.67617 2.52802 22696 ft 356 kts 262°
2026-04-16 13:21 51.67261 2.48865 22421 ft 354 kts 262°
2026-04-16 13:21 51.66903 2.44939 22161 ft 353 kts 262°
2026-04-16 13:22 51.66546 2.41029 21912 ft 352 kts 262°
2026-04-16 13:22 51.66189 2.37145 21648 ft 350 kts 262°
2026-04-16 13:22 51.65832 2.33271 21384 ft 349 kts 262°
2026-04-16 13:22 51.65595 2.30713 21211 ft 348 kts 262°
2026-04-16 13:23 51.65237 2.26858 20953 ft 347 kts 262°
2026-04-16 13:23 51.64881 2.23023 20702 ft 345 kts 262°
2026-04-16 13:23 51.64523 2.19200 20453 ft 344 kts 262°
2026-04-16 13:23 51.64167 2.15398 20246 ft 343 kts 262°
2026-04-16 13:24 51.63810 2.11605 20197 ft 343 kts 262°
2026-04-16 13:24 51.63457 2.07809 20197 ft 343 kts 262°
2026-04-16 13:24 51.63105 2.04016 20198 ft 342 kts 262°
2026-04-16 13:24 51.62754 2.00219 20197 ft 342 kts 262°
2026-04-16 13:25 51.62403 1.96424 20197 ft 342 kts 262°
2026-04-16 13:25 51.62051 1.92634 20196 ft 342 kts 262°
2026-04-16 13:25 51.61695 1.88845 20190 ft 343 kts 261°
2026-04-16 13:25 51.61098 1.85175 20188 ft 344 kts 251°
2026-04-16 13:26 51.59999 1.81765 20194 ft 346 kts 239°
2026-04-16 13:26 51.58557 1.78573 20112 ft 350 kts 233°
2026-04-16 13:26 51.56996 1.75679 19714 ft 344 kts 231°
2026-04-16 13:26 51.55394 1.72834 18958 ft 341 kts 231°
2026-04-16 13:27 51.53809 1.70017 18243 ft 339 kts 231°
2026-04-16 13:27 51.52248 1.67224 17703 ft 331 kts 231°
2026-04-16 13:27 51.50736 1.64509 17283 ft 321 kts 231°
2026-04-16 13:27 51.49343 1.61794 16886 ft 309 kts 238°
2026-04-16 13:28 51.48344 1.58773 16490 ft 307 kts 249°
2026-04-16 13:28 51.47570 1.55577 16087 ft 307 kts 251°
2026-04-16 13:28 51.46840 1.52360 15683 ft 305 kts 251°
2026-04-16 13:28 51.46126 1.49209 15290 ft 304 kts 251°
2026-04-16 13:29 51.45403 1.46039 14895 ft 302 kts 251°
2026-04-16 13:29 51.44680 1.42884 14515 ft 301 kts 251°
2026-04-16 13:29 51.43897 1.39713 14223 ft 313 kts 246°
2026-04-16 13:29 51.42663 1.36783 13983 ft 323 kts 229°
2026-04-16 13:30 51.40955 1.34424 13812 ft 326 kts 220°
2026-04-16 13:30 51.39130 1.32260 13638 ft 325 kts 219°
2026-04-16 13:30 51.37302 1.30134 13482 ft 324 kts 219°
2026-04-16 13:30 51.35478 1.28007 13294 ft 323 kts 219°
2026-04-16 13:31 51.33664 1.25881 13135 ft 322 kts 219°
2026-04-16 13:31 51.31851 1.23751 12946 ft 322 kts 219°
2026-04-16 13:31 51.30073 1.21659 12811 ft 320 kts 219°
2026-04-16 13:31 51.28280 1.19550 12636 ft 319 kts 219°
2026-04-16 13:32 51.26494 1.17449 12474 ft 318 kts 219°
2026-04-16 13:32 51.24714 1.15356 12303 ft 317 kts 219°
2026-04-16 13:32 51.22943 1.13276 12138 ft 316 kts 219°
2026-04-16 13:32 51.21172 1.11196 11978 ft 315 kts 219°
2026-04-16 13:33 51.19406 1.09126 11826 ft 315 kts 219°
2026-04-16 13:33 51.17645 1.07062 11652 ft 314 kts 219°
2026-04-16 13:33 51.15886 1.05003 11493 ft 313 kts 219°
2026-04-16 13:33 51.14131 1.02951 11348 ft 312 kts 219°
2026-04-16 13:34 51.12382 1.00907 11166 ft 312 kts 219°
2026-04-16 13:34 51.10637 0.98871 11016 ft 311 kts 219°
2026-04-16 13:34 51.08903 0.96827 10842 ft 309 kts 221°
2026-04-16 13:34 51.07533 0.94264 10704 ft 303 kts 243°
2026-04-16 13:35 51.06874 0.91150 10370 ft 302 kts 258°
2026-04-16 13:35 51.06508 0.87866 9783 ft 300 kts 260°
2026-04-16 13:35 51.06188 0.84603 9054 ft 296 kts 261°
2026-04-16 13:35 51.05876 0.81386 8327 ft 292 kts 261°
2026-04-16 13:36 51.05564 0.78215 7629 ft 288 kts 261°
2026-04-16 13:36 51.05256 0.75129 7172 ft 276 kts 261°
2026-04-16 13:36 51.04956 0.72208 6945 ft 260 kts 261°
2026-04-16 13:36 51.04675 0.69461 6817 ft 245 kts 261°
2026-04-16 13:37 51.04404 0.66802 6790 ft 243 kts 261°
2026-04-16 13:37 51.04141 0.64224 6774 ft 230 kts 261°
2026-04-16 13:37 51.03888 0.61743 6764 ft 224 kts 261°
2026-04-16 13:37 51.03641 0.59318 6763 ft 221 kts 261°
2026-04-16 13:38 51.03395 0.56895 6754 ft 223 kts 261°
2026-04-16 13:38 51.03330 0.54449 6733 ft 222 kts 280°
2026-04-16 13:38 51.03966 0.52248 6491 ft 225 kts 301°
2026-04-16 13:38 51.04931 0.50258 5912 ft 231 kts 305°
2026-04-16 13:39 51.05974 0.48234 5163 ft 242 kts 306°
2026-04-16 13:39 51.07061 0.46078 4391 ft 251 kts 306°
2026-04-16 13:39 51.08159 0.43919 3651 ft 258 kts 305°
2026-04-16 13:39 51.09326 0.41708 2991 ft 261 kts 306°
2026-04-16 13:40 51.10492 0.39520 2680 ft 251 kts 306°
2026-04-16 13:40 51.11571 0.37491 2626 ft 232 kts 306°
2026-04-16 13:40 51.12581 0.35572 2630 ft 222 kts 306°
2026-04-16 13:40 51.13572 0.33683 2636 ft 221 kts 305°
2026-04-16 13:41 51.14563 0.31806 2637 ft 221 kts 305°
2026-04-16 13:41 51.15562 0.29943 2637 ft 221 kts 305°
2026-04-16 13:41 51.16567 0.28085 2641 ft 221 kts 306°
2026-04-16 13:41 51.17441 0.26108 2659 ft 216 kts 291°
2026-04-16 13:42 51.18008 0.23901 2677 ft 215 kts 287°
2026-04-16 13:42 51.18537 0.21710 2701 ft 215 kts 289°
2026-04-16 13:42 51.19128 0.19491 2709 ft 215 kts 289°
2026-04-16 13:42 51.19538 0.17221 2725 ft 212 kts 274°
2026-04-16 13:43 51.19520 0.14895 2740 ft 210 kts 260°
2026-04-16 13:43 51.19240 0.12651 2767 ft 209 kts 256°
2026-04-16 13:43 51.18918 0.10399 2786 ft 207 kts 256°
2026-04-16 13:43 51.18615 0.08254 2817 ft 192 kts 256°
2026-04-16 13:44 51.18326 0.06192 2820 ft 189 kts 256°
2026-04-16 13:44 51.18042 0.04156 2831 ft 188 kts 256°
2026-04-16 13:44 51.17764 0.02131 2640 ft 182 kts 256°
2026-04-16 13:44 51.17504 0.00248 2349 ft 166 kts 255°
2026-04-16 13:45 51.17268 -0.01444 2261 ft 148 kts 255°
2026-04-16 13:45 51.17046 -0.03032 2070 ft 146 kts 253°
2026-04-16 13:45 51.16829 -0.04596 1867 ft 143 kts 253°
2026-04-16 13:45 51.16614 -0.06136 1667 ft 142 kts 253°
2026-04-16 13:46 51.16402 -0.07654 1471 ft 143 kts 253°
2026-04-16 13:46 51.16186 -0.09202 1281 ft 144 kts 253°
2026-04-16 13:46 51.15969 -0.10763 1081 ft 145 kts 255°
2026-04-16 13:46 51.15750 -0.12337 886 ft 145 kts 255°
2026-04-16 13:47 51.15535 -0.13886 683 ft 142 kts 255°
2026-04-16 13:47 51.15315 -0.15434 463 ft 146 kts 255°
2026-04-16 13:47 51.15093 -0.17036 299 ft 148 kts 255°
2026-04-16 13:47 51.14872 -0.18623 221 ft 141 kts 256°
2026-04-16 13:48 51.14731 -0.19628 219 ft 64 kts 257°
2026-04-16 13:48 51.14727 -0.20187 218 ft 41 kts 282°
2026-04-16 13:48 51.14754 -0.20369 217 ft 0 kts 283°
2026-04-16 13:50 51.14758 -0.20398 211 ft 8 kts 284°
2026-04-16 13:50 51.14777 -0.20519 209 ft 9 kts 284°
2026-04-16 13:50 51.14797 -0.20640 215 ft 7 kts 301°
2026-04-16 13:50 51.14842 -0.20646 213 ft 10 kts 18°
2026-04-16 13:51 51.14888 -0.20496 217 ft 24 kts 78°
2026-04-16 13:51 51.14932 -0.20180 213 ft 33 kts 78°
2026-04-16 13:51 51.14982 -0.19811 211 ft 34 kts 77°
2026-04-16 13:51 51.15031 -0.19463 219 ft 26 kts 78°
2026-04-16 13:52 51.15072 -0.19168 218 ft 26 kts 77°
2026-04-16 13:52 51.15077 -0.19134 216 ft 0 kts 77°
2026-04-16 13:52 51.15077 -0.19133 216 ft 1 kts 77°
2026-04-16 13:52 51.15084 -0.19084 215 ft 11 kts 77°
2026-04-16 13:53 51.15113 -0.18864 217 ft 28 kts 78°
2026-04-16 13:53 51.15140 -0.18701 211 ft 2 kts 47°
2026-04-16 13:53 51.15165 -0.18700 211 ft 0 kts 351°
2026-04-16 13:54 51.15175 -0.18703 219 ft 6 kts 349°
2026-04-16 13:54 51.15256 -0.18730 215 ft 13 kts 347°
2026-04-16 13:54 51.15270 -0.18735 213 ft 0 kts 347°
2026-04-16 13:55 51.15288 -0.18742 212 ft 9 kts 347°
2026-04-16 13:55 51.15353 -0.18778 215 ft 3 kts 308°
2026-04-16 13:55 51.15347 -0.18819 212 ft 8 kts 257°
2026-04-16 13:55 51.15337 -0.18896 214 ft 0 kts 258°